Temperature
-0 0 0 0 0 -0 -0 -0 0 1 0 1 0 -0 0 0 0 -0 -1 -1 -1 -1 -1 -1 -2 -2 -2 -2 -2 -2 -2 -2 -2 -2 -2 -2 -2 -2 -2 -2 -1 -1 -1 -1
-1 -0 -1 -0 -0 -0 -0 -0 -1 -0 0 0 0 0 -0 -0 -0 -1 -1 -1 -1 -1 -2 -2 -2 -2 -2 -2 -3 -3 -3 -3 -3 -3 -3 -3 -2 -2 -2 -2 -2 -2 -2 -2
-1 -2 -1 -0 -1 -1 -1 -1 -1 -0 0 -1 -1 -1 -1 -1 -1 -1 -1 -2 -2 -2 -2 -2 -2 -3 -3 -3 -3 -3 -3 -3 -3 -3 -3 -3 -3 -3 -3 -2 -2 -2 -2 -2
-2 -2 -0 1 -1 -1 -1 -1 -2 -2 -2 -1 -1 -1 -1 -1 -1 -1 -2 -2 -2 -2 -2 -2 -3 -3 -3 -3 -3 -4 -4 -4 -4 -4 -4 -4 -3 -3 -3 -3 -3 -3 -3 -3
-3 -2 -1 -0 -1 -2 -2 -2 -2 -2 -2 -2 -2 -2 -2 -1 -1 -2 -2 -2 -2 -3 -3 -3 -3 -3 -3 -4 -4 -4 -4 -4 -4 -4 -4 -4 -4 -4 -4 -4 -3 -3 -3 -3
-3 -2 -1 1 -1 -2 -2 -1 -2 -2 -3 -3 -3 -3 -3 -1 -2 -2 -2 -3 -3 -3 -3 -3 -3 -4 -4 -4 -4 -4 -4 -4 -4 -5 -5 -4 -4 -4 -4 -4 -4 -4 -4 -4
-3 -2 -2 -1 -2 -2 -1 -1 -1 -2 -2 -3 -3 -3 -2 -2 -2 -3 -3 -3 -3 -3 -4 -4 -4 -4 -4 -4 -4 -4 -4 -4 -5 -5 -5 -5 -5 -4 -4 -4 -4 -4 -4 -4
-3 -3 -1 -2 -3 -2 -1 -1 -1 -1 -2 -2 -2 -2 -2 -3 -3 -3 -3 -4 -4 -4 -4 -4 -4 -4 -5 -5 -5 -5 -5 -5 -5 -5 -5 -5 -5 -5 -5 -5 -5 -4 -4 -4
-3 -2 -2 -2 -1 -1 -1 -1 -1 -1 -2 -2 -3 -3 -3 -3 -3 -4 -4 -4 -4 -4 -4 -4 -5 -5 -5 -5 -5 -5 -5 -5 -5 -5 -5 -5 -5 -5 -5 -5 -5 -5 -5 -5
-4 -4 -2 -2 -1 -1 -1 -1 -2 -2 -2 -3 -3 -3 -4 -4 -4 -4 -4 -4 -5 -5 -5 -5 -5 -5 -5 -5 -5 -5 -5 -5 -5 -5 -5 -5 -5 -5 -5 -5 -5 -5 -5 -5
-4 -4 -3 -2 -1 -1 -2 -2 -2 -3 -3 -3 -3 -4 -4 -4 -4 -5 -5 -5 -5 -5 -5 -5 -5 -5 -5 -5 -5 -5 -5 -5 -6 -6 -6 -6 -6 -6 -6 -6 -6 -6 -5 -5
-3 -2 -3 -2 -1 -2 -2 -3 -3 -3 -3 -4 -4 -4 -4 -5 -5 -5 -5 -5 -5 -5 -5 -6 -6 -6 -6 -6 -6 -6 -6 -6 -6 -6 -6 -6 -6 -6 -6 -6 -6 -6 -6 -6
-2 -1 -2 -2 -2 -2 -3 -3 -3 -4 -4 -4 -4 -5 -5 -5 -5 -5 -5 -6 -6 -6 -6 -6 -6 -6 -6 -6 -6 -6 -6 -6 -6 -6 -6 -6 -6 -6 -6 -6 -6 -6 -6 -6
-2 -2 -3 -2 -3 -3 -3 -4 -4 -4 -4 -5 -5 -5 -5 -5 -6 -6 -6 -6 -6 -6 -6 -6 -6 -6 -6 -6 -6 -6 -6 -6 -6 -6 -6 -6 -6 -6 -6 -6 -6 -6 -6 -6
-3 -3 -3 -3 -3 -4 -4 -4 -4 -4 -5 -5 -5 -5 -6 -6 -6 -6 -6 -6 -6 -6 -6 -6 -6 -6 -6 -7 -7 -6 -6 -6 -6 -7 -7 -7 -7 -7 -7 -7 -7 -7 -7 -6
-3 -4 -4 -4 -4 -4 -4 -5 -5 -5 -5 -5 -5 -6 -6 -6 -6 -6 -6 -6 -6 -6 -6 -6 -7 -7 -7 -7 -7 -7 -7 -7 -7 -7 -7 -7 -7 -7 -7 -7 -7 -7 -7 -7
-4 -4 -4 -5 -4 -4 -5 -5 -5 -5 -5 -6 -6 -6 -6 -6 -6 -6 -6 -6 -6 -7 -7 -7 -7 -7 -7 -7 -7 -7 -7 -7 -7 -7 -7 -7 -7 -7 -7 -7 -7 -7 -7 -7
-4 -3 -4 -4 -4 -5 -5 -5 -5 -5 -6 -6 -6 -6 -6 -6 -7 -7 -7 -7 -7 -7 -7 -7 -7 -7 -7 -7 -7 -7 -7 -7 -7 -7 -7 -7 -7 -7 -7 -8 -7 -7 -7 -7
-4 -4 -4 -4 -5 -5 -5 -5 -5 -6 -6 -6 -6 -6 -6 -7 -7 -7 -7 -7 -7 -7 -7 -7 -7 -7 -7 -7 -7 -7 -7 -7 -7 -7 -7 -7 -7 -7 -8 -8 -8 -8 -7 -7
-4 -4 -4 -5 -5 -5 -5 -5 -6 -6 -6 -6 -6 -7 -7 -7 -7 -7 -7 -7 -7 -7 -7 -7 -7 -7 -7 -8 -8 -8 -7 -7 -7 -8 -8 -8 -7 -8 -8 -8 -7 -8 -8 -8
-4 -5 -5 -5 -5 -5 -5 -6 -6 -6 -6 -7 -7 -7 -7 -7 -7 -7 -7 -7 -7 -7 -7 -7 -7 -7 -7 -8 -8 -8 -8 -8 -8 -8 -8 -8 -8 -8 -8 -8 -8 -8 -8 -8
-5 -5 -5 -5 -5 -5 -6 -6 -6 -6 -6 -7 -7 -7 -7 -7 -7 -7 -7 -8 -8 -8 -8 -7 -7 -8 -8 -7 -7 -7 -7 -8 -8 -8 -8 -8 -8 -8 -8 -8 -8 -8 -8 -8
-5 -5 -5 -5 -5 -5 -6 -6 -6 -6 -7 -7 -7 -7 -7 -7 -7 -8 -8 -8 -8 -8 -8 -8 -8 -8 -8 -7 -7 -7 -8 -8 -8 -8 -8 -8 -8 -8 -8 -8 -8 -8 -8 -8
-5 -5 -5 -5 -6 -6 -6 -6 -6 -6 -7 -7 -7 -7 -7 -7 -7 -8 -8 -8 -8 -8 -8 -8 -8 -8 -8 -8 -8 -8 -8 -8 -8 -8 -8 -8 -8 -8 -8 -8 -8 -8 -8 -8
-6 -6 -6 -6 -6 -6 -6 -6 -6 -6 -7 -7 -7 -7 -7 -8 -8 -8 -8 -8 -8 -8 -8 -8 -8 -8 -8 -8 -8 -8 -8 -8 -8 -8 -8 -8 -8 -8 -8 -8 -8 -8 -8 -8
-6 -6 -6 -6 -6 -6 -6 -6 -6 -7 -7 -7 -7 -7 -7 -8 -8 -8 -8 -8 -8 -8 -8 -8 -8 -8 -8 -8 -8 -8 -8 -8 -8 -8 -8 -8 -8 -8 -8 -8 -8 -8 -8 -8
-6 -6 -6 -6 -6 -7 -7 -7 -7 -7 -7 -7 -7 -7 -8 -8 -8 -8 -8 -8 -8 -8 -8 -8 -8 -8 -8 -8 -8 -8 -8 -8 -8 -8 -8 -8 -8 -8 -8 -8 -8 -8 -8 -8
Wind_Speed
5 5 3 5 6 6 7 8 8 8 9 11 8 6 5 3 3 2 2 2 3 3 2 2 3 3 3 4 4 3 3 3 3 4 3 3 3 3 3 3 2 2 2 2
3 3 3 6 8 8 8 7 9 9 11 8 5 3 3 3 4 4 4 3 3 3 3 3 3 3 4 4 4 3 3 3 4 3 3 3 3 3 3 2 2 1 1 2
3 4 4 7 8 9 6 6 7 10 10 5 4 4 5 5 4 4 4 4 4 4 4 4 4 3 4 4 3 3 3 4 3 3 3 3 3 2 2 2 2 2 2 2
1 2 5 7 2 5 6 6 7 7 6 5 5 4 4 4 4 4 4 4 4 4 4 3 3 3 3 3 2 3 3 4 3 3 3 3 2 2 2 2 2 2 3 3
2 3 8 7 3 3 4 6 6 8 7 5 3 4 4 2 3 4 4 4 4 3 3 3 3 3 2 3 2 3 4 4 4 3 3 3 3 3 3 2 3 2 2 3
3 3 7 6 2 1 2 5 4 4 5 3 2 3 5 3 3 3 3 2 3 3 2 3 3 2 2 3 3 4 5 4 4 3 3 3 3 3 2 2 2 2 2 2
5 6 8 5 2 2 2 6 3 2 3 2 3 5 5 4 3 3 3 3 3 2 3 3 3 2 3 4 5 5 5 4 3 3 3 3 2 2 2 2 2 2 2 2
5 5 8 3 3 4 6 3 1 2 2 3 5 5 4 4 4 4 4 4 3 2 4 4 3 2 4 5 5 4 4 3 3 3 3 2 2 2 1 1 1 2 2 2
7 7 5 4 5 4 2 2 3 3 3 3 4 5 5 4 4 4 4 4 3 3 4 4 3 3 4 5 4 4 3 3 3 3 2 2 2 1 1 1 1 2 1 2
5 8 6 5 5 3 3 3 4 3 3 3 4 5 5 5 5 4 4 4 3 3 4 5 4 4 4 4 4 3 4 3 3 2 2 2 2 2 1 2 2 2 2 2
5 7 5 5 5 5 3 3 3 3 3 3 4 5 4 5 5 5 4 4 3 4 4 5 5 5 4 4 3 3 3 3 2 2 2 2 2 2 2 3 3 2 2 2
6 5 4 6 5 3 3 4 3 3 3 3 3 4 4 5 4 4 4 4 4 4 4 4 4 5 4 4 3 3 3 2 2 2 2 2 2 2 3 3 4 4 3 3
5 3 4 5 3 2 3 4 3 3 3 3 3 3 3 4 4 4 4 4 4 5 4 4 4 4 4 4 3 3 3 3 2 2 2 2 2 1 2 3 3 3 4 4
3 1 3 3 3 3 2 2 2 2 2 2 2 2 2 3 3 4 5 5 4 4 4 4 4 4 4 3 3 3 3 3 2 2 2 2 2 2 2 2 2 2 3 4
4 3 4 4 2 1 1 1 1 2 2 2 2 2 2 3 4 5 5 4 4 3 3 3 4 5 4 3 2 3 2 2 2 1 1 2 2 1 1 1 1 2 2 3
4 2 1 2 2 2 1 1 2 3 3 2 2 3 3 3 4 4 4 3 3 3 4 3 4 4 3 2 2 2 2 2 1 1 1 1 1 1 1 1 1 1 1 2
2 3 3 3 3 3 3 3 3 3 3 3 3 3 3 2 3 4 4 4 3 3 4 3 4 4 3 2 2 1 1 2 2 1 1 1 1 1 1 1 2 2 2 2
6 6 5 5 5 4 4 3 3 3 3 3 2 1 1 2 3 4 4 4 4 3 3 3 3 3 3 2 2 1 1 1 1 1 1 1 1 1 1 1 2 2 2 2
3 3 3 3 3 3 3 3 3 2 2 1 1 2 2 2 3 3 3 3 3 4 4 4 5 3 3 3 2 1 1 1 1 1 1 1 1 1 1 1 2 2 2 1
1 1 1 1 1 1 2 2 1 1 1 1 1 1 2 2 2 3 2 3 3 4 4 4 3 3 3 3 2 1 1 1 1 1 1 1 1 1 1 2 2 1 2 1
1 1 1 1 1 1 1 1 1 1 1 1 1 2 2 2 2 2 2 3 4 4 4 5 3 3 2 2 2 1 1 2 2 2 2 2 2 2 2 1 1 2 2 1
1 1 1 1 1 0 1 0 1 1 1 1 1 1 1 2 2 2 3 3 4 5 3 3 3 4 3 3 1 1 1 2 2 2 2 2 2 2 2 2 2 2 2 1
1 1 2 1 1 1 1 0 0 1 1 1 1 2 2 2 2 2 3 3 3 5 3 3 5 5 4 2 1 2 2 1 1 1 1 1 1 2 2 2 2 2 2 2
1 1 1 1 1 1 0 1 1 1 1 1 1 1 1 1 2 2 2 4 5 5 3 4 5 5 4 2 1 2 2 2 2 1 1 1 1 1 1 1 2 2 2 2
1 1 1 2 2 1 1 1 1 1 1 1 2 2 1 1 1 2 2 3 5 4 3 5 6 5 3 2 2 2 2 2 1 1 1 1 1 1 1 2 2 2 2 2
1 1 2 2 2 2 1 1 1 1 1 1 2 1 1 1 2 2 2 3 3 4 3 3 3 4 3 3 2 2 2 2 2 2 1 1 1 1 1 2 2 2 2 2
1 1 1 0 0 1 1 1 1 1 1 1 2 2 2 1 2 2 2 2 2 3 3 3 3 2 2 2 2 3 3 2 2 2 2 1 1 1 2 2 2 2 2 2
Wind_Direction
251 266 241 241 241 216 209 210 220 249 254 266 259 253 258 254 253 263 274 283 285 280 283 294 307 311 312 314 314 309 310 309 299 299 301 305 307 306 310 303 300 300 303 308
286 283 266 267 253 232 232 233 241 263 272 271 268 254 254 257 250 257 263 273 282 284 285 290 294 298 303 302 302 304 305 304 305 309 312 307 305 309 318 323 323 324 310 296
263 317 345 274 239 213 221 222 212 237 253 280 286 262 251 246 242 247 256 268 275 278 272 277 282 283 283 288 295 310 310 306 307 309 307 307 313 324 320 313 316 312 307 304
239 25 256 249 233 208 219 244 226 245 270 274 265 279 263 242 226 249 263 266 274 283 288 285 284 288 293 299 301 305 305 304 305 306 305 307 308 310 307 308 304 298 296 291
162 247 276 287 260 187 203 265 235 241 268 290 322 334 302 260 252 249 256 263 270 275 282 290 287 282 296 300 300 299 297 295 295 292 291 294 292 293 295 301 303 296 292 292
168 213 247 258 263 185 115 280 257 223 245 275 354 307 283 293 303 295 290 283 288 290 295 294 292 290 290 286 289 287 288 285 286 284 280 278 280 285 295 291 294 301 303 298
202 231 261 258 239 114 166 264 287 225 234 222 238 252 277 297 301 296 299 298 295 295 295 292 291 291 285 281 280 286 291 288 289 286 282 275 282 288 294 304 310 306 301 302
181 218 254 215 135 188 238 285 272 252 246 243 263 283 291 293 293 299 305 306 300 296 297 295 288 277 279 283 287 294 293 288 286 283 284 294 288 291 298 299 301 301 305 312
198 221 261 198 211 246 246 257 261 255 263 256 268 277 286 290 288 291 292 296 299 286 294 296 288 271 273 287 299 296 290 283 280 281 279 283 269 272 284 282 283 289 288 299
245 261 260 253 257 269 244 253 265 259 257 247 259 269 280 285 290 292 293 291 295 290 289 293 295 287 274 284 294 293 279 276 275 272 277 285 282 270 263 260 266 277 277 286
250 272 291 270 253 256 264 280 286 289 265 249 257 269 269 277 284 285 290 292 289 280 281 285 295 295 291 286 289 292 278 271 275 267 261 265 271 267 270 257 256 268 263 265
233 242 232 269 270 246 253 269 273 282 288 280 257 266 275 276 278 281 285 289 291 286 283 285 289 292 294 289 279 275 278 273 264 263 263 267 278 304 306 300 298 299 300 298
239 253 244 273 282 244 240 262 269 264 263 279 285 273 275 281 284 285 286 289 285 283 283 284 286 287 289 287 280 266 261 262 258 258 259 261 263 267 298 316 320 320 318 316
253 263 266 264 275 279 271 272 293 305 289 279 288 299 299 295 297 292 290 290 286 282 282 285 288 290 292 289 284 277 267 262 259 247 246 248 248 253 260 278 304 312 319 329
249 242 246 267 285 303 312 329 341 315 316 321 316 312 308 299 294 296 299 302 299 287 286 291 297 298 301 293 289 285 273 260 258 254 247 246 249 255 262 274 282 295 319 327
267 269 245 238 251 282 299 265 259 275 287 296 303 304 300 294 295 300 308 313 304 296 299 299 299 304 309 300 294 292 287 285 286 266 253 250 246 253 264 268 281 287 294 297
216 240 244 257 260 266 253 245 243 253 261 268 279 297 306 313 318 320 324 325 309 298 298 298 300 310 311 299 289 286 289 285 288 283 253 243 240 247 257 259 267 277 283 291
224 228 226 226 230 242 255 256 253 253 255 263 278 291 292 299 303 308 316 325 326 321 315 307 305 311 307 301 285 276 278 273 273 273 276 266 260 269 267 266 265 276 290 296
238 225 220 222 222 220 228 239 251 258 262 243 234 255 272 284 296 306 316 325 323 318 317 314 317 319 307 304 313 278 277 276 278 284 278 273 285 287 281 278 276 277 283 291
226 205 196 212 211 202 219 241 250 263 266 232 227 281 300 303 308 314 322 310 298 295 300 307 315 306 300 299 308 281 273 267 264 270 269 266 268 273 271 274 280 285 286 284
203 187 179 182 212 241 218 212 204 237 262 220 213 244 273 298 309 313 318 311 312 314 313 318 320 305 295 300 306 278 267 265 261 257 256 258 260 261 263 271 282 287 290 290
203 188 185 176 170 257 290 256 209 216 243 261 268 271 289 305 312 309 290 281 303 320 330 319 316 315 321 321 314 298 277 266 261 260 255 252 255 261 264 267 274 280 282 280
209 195 185 187 193 219 309 324 231 192 228 246 250 257 264 273 280 291 302 306 308 319 329 312 317 328 337 341 326 316 312 300 285 280 278 268 260 260 263 267 272 275 276 277
193 191 191 178 141 131 301 307 320 309 283 278 271 265 268 295 301 285 285 311 324 327 326 320 329 339 347 354 334 324 316 308 298 294 289 282 274 273 271 269 272 277 275 271
187 180 163 153 166 202 226 254 0 1 355 335 315 303 292 272 271 296 307 311 321 331 327 329 340 351 357 345 330 319 311 302 298 294 286 281 277 277 277 276 274 274 271 267
181 189 202 214 214 207 201 196 214 259 300 314 315 309 310 309 304 306 310 317 322 334 337 336 339 344 345 341 338 328 319 318 323 321 310 297 286 284 283 281 277 274 274 269
144 149 153 194 258 213 200 199 210 234 240 253 281 293 304 311 314 318 321 327 333 335 334 334 334 335 336 338 339 339 338 336 333 328 323 317 307 296 292 288 286 283 281 275
Height
1515 1512 1513 1512 1511 1511 1513 1512 1512 1504 1501 1493 1492 1491 1490 1489 1489 1488 1487 1487 1485 1484 1483 1482 1481 1479 1477 1476 1474 1473 1471 1470 1468 1467 1466 1465 1464 1463 1462 1462 1461 1461 1460 1460
1516 1512 1512 1511 1507 1507 1507 1506 1505 1502 1497 1489 1489 1489 1488 1487 1486 1486 1485 1484 1483 1482 1481 1479 1478 1476 1474 1473 1471 1470 1468 1467 1465 1464 1463 1462 1461 1460 1459 1459 1458 1458 1457 1457
1516 1516 1511 1508 1501 1501 1501 1499 1499 1497 1491 1487 1487 1486 1485 1484 1484 1483 1482 1481 1480 1479 1478 1476 1475 1473 1471 1470 1469 1467 1466 1464 1463 1461 1460 1459 1458 1457 1457 1456 1456 1455 1455 1454
1521 1518 1514 1497 1494 1494 1494 1493 1492 1490 1487 1485 1484 1483 1483 1482 1481 1480 1480 1478 1477 1476 1474 1473 1472 1470 1469 1467 1466 1464 1463 1461 1460 1459 1458 1456 1456 1455 1454 1454 1453 1453 1452 1452
1521 1519 1509 1496 1492 1493 1494 1491 1487 1486 1484 1483 1483 1481 1480 1480 1479 1478 1477 1476 1474 1473 1471 1470 1468 1467 1466 1464 1463 1461 1460 1458 1457 1456 1455 1454 1453 1453 1452 1451 1451 1451 1450 1450
1518 1515 1507 1491 1489 1488 1491 1490 1482 1482 1482 1482 1482 1483 1479 1477 1477 1476 1474 1473 1471 1470 1468 1466 1465 1464 1462 1461 1460 1458 1457 1456 1454 1453 1453 1452 1451 1450 1450 1449 1449 1449 1448 1448
1514 1513 1500 1490 1488 1489 1493 1486 1480 1479 1479 1480 1480 1479 1477 1475 1474 1473 1471 1470 1468 1467 1465 1463 1462 1461 1459 1458 1456 1455 1454 1453 1452 1451 1450 1449 1449 1448 1448 1447 1447 1446 1446 1446
1511 1510 1497 1486 1487 1488 1484 1480 1478 1478 1477 1477 1476 1475 1473 1472 1471 1470 1468 1467 1465 1463 1462 1460 1459 1457 1456 1454 1453 1452 1451 1450 1449 1448 1448 1447 1446 1446 1445 1445 1444 1444 1443 1443
1497 1492 1484 1482 1480 1480 1479 1478 1477 1476 1475 1475 1473 1472 1471 1469 1468 1467 1465 1464 1462 1460 1459 1457 1456 1454 1453 1451 1450 1449 1448 1447 1446 1446 1445 1444 1444 1443 1443 1442 1442 1441 1441 1441
1492 1484 1480 1479 1478 1478 1477 1476 1475 1474 1473 1472 1470 1469 1468 1467 1465 1464 1462 1460 1459 1457 1455 1454 1452 1451 1450 1448 1447 1446 1445 1444 1444 1443 1442 1442 1442 1441 1441 1440 1440 1440 1439 1439
1487 1480 1478 1475 1475 1474 1474 1473 1472 1471 1470 1469 1467 1466 1465 1463 1462 1460 1459 1457 1455 1454 1452 1450 1449 1448 1446 1445 1444 1443 1442 1441 1441 1440 1440 1440 1439 1439 1439 1438 1438 1438 1438 1437
1480 1475 1475 1473 1471 1471 1470 1469 1468 1467 1466 1465 1465 1463 1462 1460 1459 1457 1455 1454 1452 1451 1449 1447 1446 1444 1443 1442 1441 1440 1439 1439 1438 1438 1437 1437 1437 1437 1437 1437 1437 1436 1436 1436
1473 1471 1471 1470 1469 1468 1467 1466 1465 1464 1463 1462 1461 1460 1459 1457 1456 1454 1453 1451 1449 1448 1446 1444 1443 1441 1440 1439 1439 1438 1437 1436 1436 1436 1435 1435 1435 1435 1435 1435 1435 1435 1434 1434
1470 1469 1467 1466 1466 1465 1464 1463 1463 1462 1461 1460 1459 1457 1456 1455 1453 1451 1450 1448 1447 1445 1443 1442 1440 1439 1438 1437 1436 1436 1435 1434 1434 1434 1434 1433 1433 1433 1433 1433 1432 1432 1433 1432
1466 1466 1465 1464 1463 1462 1461 1460 1459 1458 1458 1457 1456 1455 1454 1452 1451 1449 1448 1446 1444 1443 1441 1440 1438 1437 1436 1435 1434 1434 1433 1432 1432 1432 1432 1432 1432 1432 1432 1431 1431 1431 1431 1431
1461 1461 1461 1460 1460 1459 1458 1457 1457 1456 1455 1454 1453 1453 1452 1450 1449 1447 1446 1444 1443 1441 1440 1438 1436 1435 1434 1433 1433 1432 1431 1431 1431 1430 1430 1430 1430 1430 1430 1430 1430 1429 1429 1429
1458 1457 1457 1456 1456 1455 1455 1455 1454 1454 1453 1452 1451 1451 1449 1448 1447 1445 1444 1443 1441 1440 1438 1437 1435 1434 1433 1432 1431 1431 1430 1429 1429 1429 1428 1428 1428 1428 1428 1428 1428 1428 1428 1428
1454 1454 1454 1453 1453 1452 1452 1452 1452 1452 1451 1450 1450 1449 1447 1446 1445 1444 1442 1441 1440 1438 1437 1436 1434 1433 1432 1431 1430 1430 1429 1428 1428 1427 1427 1427 1427 1427 1427 1426 1426 1426 1426 1426
1451 1451 1451 1451 1451 1450 1450 1450 1450 1450 1449 1448 1448 1447 1446 1445 1444 1442 1441 1439 1438 1437 1436 1434 1433 1432 1431 1430 1429 1428 1427 1427 1426 1426 1426 1426 1425 1425 1425 1425 1424 1424 1424 1424
1448 1448 1448 1448 1448 1448 1448 1448 1448 1448 1447 1447 1446 1445 1444 1444 1443 1441 1440 1438 1437 1436 1434 1433 1432 1430 1429 1428 1428 1427 1426 1425 1425 1425 1424 1424 1424 1423 1423 1423 1423 1423 1423 1423
1446 1446 1446 1446 1446 1447 1447 1447 1446 1446 1446 1445 1445 1444 1443 1442 1441 1440 1438 1437 1436 1435 1433 1432 1431 1429 1428 1427 1426 1425 1424 1424 1423 1423 1422 1422 1422 1422 1422 1421 1421 1421 1421 1421
1444 1444 1444 1445 1445 1445 1446 1446 1445 1445 1445 1444 1444 1443 1442 1441 1440 1439 1438 1437 1435 1434 1432 1431 1429 1428 1427 1426 1425 1424 1423 1422 1422 1421 1421 1420 1420 1420 1420 1420 1419 1419 1419 1419
1443 1443 1443 1444 1444 1444 1445 1444 1444 1444 1444 1443 1442 1442 1441 1440 1439 1437 1436 1435 1434 1432 1431 1429 1428 1427 1426 1424 1423 1422 1421 1421 1420 1420 1419 1419 1418 1418 1418 1418 1418 1418 1418 1418
1442 1442 1442 1443 1443 1443 1443 1443 1443 1443 1443 1442 1441 1441 1440 1438 1437 1436 1435 1434 1432 1431 1430 1428 1427 1426 1424 1423 1422 1421 1420 1419 1419 1418 1418 1417 1417 1416 1416 1416 1416 1416 1416 1416
1441 1441 1441 1441 1442 1442 1442 1442 1442 1442 1442 1441 1440 1440 1439 1438 1436 1435 1434 1432 1431 1430 1428 1427 1426 1424 1423 1422 1421 1420 1419 1418 1417 1417 1416 1416 1415 1415 1414 1414 1414 1414 1414 1414
1440 1440 1440 1440 1441 1441 1441 1441 1441 1440 1440 1440 1439 1439 1438 1437 1435 1434 1432 1431 1430 1428 1427 1426 1425 1423 1422 1421 1420 1419 1418 1417 1416 1415 1415 1414 1414 1413 1413 1413 1413 1412 1412 1412
1439 1439 1439 1440 1440 1440 1440 1440 1440 1439 1439 1439 1438 1437 1437 1435 1434 1433 1432 1430 1429 1427 1426 1425 1424 1422 1421 1420 1419 1418 1417 1416 1415 1414 1414 1413 1413 1412 1412 1412 1411 1411 1411 1411